#timestamp,LO_Frequency,Hit,StdDev 
1562788815.7,286046997.0,N
1562788835.5,286046999.5,N
1562788855.3,286046996.8,N
1562788875.2,286046997.1,N
1562788895.9,286046997.7,N
1562788915.7,286046996.8,N
1562788935.6,286046997.1,N
1562788955.4,286046999.5,N
1562788975.3,286046997.0,N
1562788995.1,286046996.8,N
1562788996.0,286046996.8,N
1562789015.8,286046996.8,N
1562789035.7,286046997.6,N
1562789055.5,286046998.0,N
1562789075.3,286046995.1,Y
1562789095.2,286046999.1,P
1562789115.0,286046999.4,N
1562789115.9,286046999.4,N
1562789135.8,286046996.8,Y
1562789155.6,286047000.7,P
1562789175.4,286046998.7,N
1562789195.3,286046996.6,P
1562789215.1,286046997.2,N
1562789235.9,286046995.4,Y
1562789255.7,286046999.6,P
1562789275.5,286046999.3,N
1562789295.4,286046998.2,P
1562789315.2,286046999.1,N
1562789335.1,286046999.6,N
1562789336.0,286046999.6,N
1562789355.8,286046996.5,Y
1562789375.6,286046998.4,P
1562789395.5,286046999.4,N
1562789415.3,286046998.7,P
1562789435.2,286046999.3,N
1562789455.9,286046998.7,Y
1562789475.7,286046998.3,P
1562789495.6,286046998.3,P
1562789515.4,286046998.3,P
1562789535.2,286047000.5,N
1562789555.1,286047000.9,N
1562789556.0,286047000.9,N
1562789575.8,286047000.9,N
1562789595.7,286047002.2,N
1562789615.5,286047001.0,N
1562789635.3,286047001.0,N
1562789655.2,286047002.6,N
1562789675.0,286047000.0,N
1562789675.9,286047000.0,N
1562789695.8,286046999.9,N
1562789715.4,286047001.6,N
1562789735.2,286047001.9,N
1562789755.0,286047002.0,N
1562789755.9,286047002.0,N
1562789775.8,286047002.4,N
1562789795.6,286047004.4,Y
1562789815.5,286047001.8,P
1562789835.3,286047002.6,P
1562789855.1,286047001.6,N
1562789875.9,286047004.2,Y
1562789895.7,286047002.4,P
1562789915.6,286047002.0,P
1562789935.4,286047001.3,P
1562789955.3,286047003.9,Y
1562789975.1,286046999.7,P
1562789976.0,286046999.7,N
1562789995.8,286047000.5,N
1562790015.7,286047001.0,N
1562790035.5,286047002.0,N
1562790055.4,286046999.9,N
1562790075.2,286047001.0,N
1562790095.0,286047001.1,N
1562790095.9,286047001.1,N
1562790115.8,286047000.7,N
1562790135.6,286047000.7,N
1562790155.5,286047000.9,N
1562790175.3,286047002.4,Y
1562790195.1,286047001.0,P
1562790215.9,286047000.5,P
1562790235.7,286047001.2,P
1562790255.5,286047000.9,Y
1562790275.4,286046999.1,P
1562790295.2,286046999.2,N
1562790315.1,286046998.3,N
1562790316.0,286046998.3,N
1562790335.8,286046998.8,N
1562790355.6,286046999.1,N
1562790375.5,286046998.3,N
1562790395.3,286046999.8,N
1562790415.2,286046998.7,N
1562790435.9,286046996.9,Y
1562790455.7,286046998.6,P
1562790475.6,286047000.6,N
1562790495.4,286047001.0,N
1562790515.2,286047000.1,N
1562790535.1,286047000.3,N
1562790536.0,286047000.3,N
1562790555.8,286047001.0,N
1562790575.7,286047000.4,N
1562790595.5,286047000.7,N
1562790615.3,286046998.7,N
1562790635.2,286046998.8,N
1562790655.0,286046999.1,N
1562790655.9,286046999.1,N
1562790675.8,286047000.7,N
1562790695.6,286046999.7,N
1562790715.4,286047002.7,Y
1562790735.3,286047002.0,P
1562790755.1,286046999.8,N
1562790775.8,286047000.2,N
1562790795.7,286047000.4,N
1562790815.5,286047000.9,N
1562790835.4,286047000.3,N
1562790855.2,286046999.8,N
1562790875.0,286047002.6,Y
1562790875.9,286047002.6,P
1562790895.8,286046999.8,N
1562790915.6,286047000.1,N
1562790935.5,286046999.9,N
1562790955.3,286047001.1,N
1562790975.1,286047000.3,N
1562790995.9,286047000.4,N
1562791015.7,286047001.2,N
1562791035.5,286047000.8,N
1562791055.4,286047000.6,N
1562791075.2,286047002.8,Y
1562791095.1,286046999.8,P
1562791096.0,286046999.8,N
1562791115.8,286047000.7,N
1562791135.6,286046998.4,Y
1562791155.5,286047001.0,P
1562791175.3,286047001.0,N
1562791195.2,286047000.8,N
1562791215.9,286046998.8,Y
1562791235.7,286046999.2,P
1562791255.6,286046998.2,N
1562791275.4,286047000.6,N
1562791295.3,286047000.2,N
1562791315.1,286047001.1,N
1562791316.0,286047001.1,N
1562791335.8,286047000.6,N
1562791355.7,286047002.6,N
1562791375.5,286047000.2,N
1562791395.3,286047002.4,N
1562791415.2,286047001.2,N
1562791435.0,286047000.8,N
1562791435.9,286047000.8,N
1562791455.8,286046998.2,N
1562791475.6,286046999.7,N
1562791495.4,286047000.8,N
1562791515.3,286047000.3,N
1562791535.1,286047001.0,N
1562791555.8,286047002.4,N
1562791575.7,286047000.9,N
1562791595.5,286046998.5,N
1562791615.4,286046998.2,N
1562791635.2,286047002.8,N
1562791655.0,286047001.0,N
1562791655.9,286047001.0,N
1562791675.8,286047000.2,N
1562791695.6,286047002.0,N
1562791715.5,286047001.7,N
1562791735.3,286047002.4,N
1562791755.1,286047002.3,N
1562791775.9,286047002.3,N
1562791795.7,286047000.9,N
1562791815.5,286047001.2,N
1562791835.4,286047000.9,N
1562791855.2,286046998.2,N
1562791875.1,286047000.3,N
1562791876.0,286047000.3,N
1562791895.8,286046998.6,N
1562791915.6,286046998.1,N
1562791935.5,286046998.2,N
1562791955.4,286047000.6,N
1562791975.2,286047002.8,N
1562791995.1,286047000.4,N
1562791996.0,286047000.4,N
1562792015.8,286047001.2,N
1562792035.6,286046999.7,N
1562792055.5,286047000.5,N
1562792075.3,286046999.7,N
1562792095.1,286047000.8,N
1562792115.9,286047000.0,N
1562792135.7,286047002.5,N
1562792155.6,286047000.1,N
1562792175.4,286047001.0,N
1562792195.2,286047000.5,N
1562792215.1,286046999.0,N
1562792216.0,286046999.0,N
1562792235.8,286046997.0,N
1562792255.7,286046997.4,N
1562792275.5,286046997.8,N
1562792295.3,286046997.7,N
1562792315.2,286046999.6,N
1562792335.0,286046995.3,Y
1562792335.9,286046995.3,P
1562792355.8,286046997.3,N
1562792375.6,286046996.7,N
1562792395.4,286046997.1,N
